This is the latest recevied weather packets stored in our database for station/object DL2DHM-13. If no packets are shown the sender has not sent any weather packets the latest 10 day(s).
| Time | Temp. | Humidity | Pressure | Rain* | Wind** | Luminosity | Snow |
|---|---|---|---|---|---|---|---|
| 1777155956 | 6.11° C | 83% | 1020 hPa | 0 mm | - | 0 W/m² | - |
| 1777153245 | 7.22° C | 82% | 1019.6 hPa | 0 mm | - | 0 W/m² | - |
| 1777152945 | 7.22° C | 82% | 1019.5 hPa | 0 mm | - | 0 W/m² | - |
| 1777151743 | 7.78° C | 80% | 1019.3 hPa | 0 mm | - | 0 W/m² | - |
| 1777151446 | 7.78° C | 80% | 1019.2 hPa | 0 mm | - | 0 W/m² | - |
| 1777150847 | 7.78° C | 78% | 1019 hPa | 0 mm | - | 0 W/m² | - |
| 1777150540 | 8.33° C | 78% | 1018.9 hPa | 0 mm | - | 0 W/m² | - |
| 1777149941 | 8.33° C | 77% | 1018.7 hPa | 0 mm | - | 0 W/m² | - |
| 1777147244 | 10° C | 72% | 1017.9 hPa | 0 mm | - | 0 W/m² | - |
| 1777145439 | 11.11° C | 68% | 1017.5 hPa | 0 mm | - | 0 W/m² | - |
| 1777143034 | 11.67° C | 62% | 1016.5 hPa | 0 mm | - | 0 W/m² | - |
| 1777141852 | 12.22° C | 61% | 1016.3 hPa | 0 mm | - | 7 W/m² | - |
| 1777141294 | 12.78° C | 60% | 1016.3 hPa | 0 mm | - | 12 W/m² | - |
| 1777140932 | 12.78° C | 59% | 1016.2 hPa | 0 mm | - | 14 W/m² | - |
| 1777140631 | 12.78° C | 59% | 1016.2 hPa | 0 mm | - | 16 W/m² | - |
| 1777140335 | 13.33° C | 58% | 1016.1 hPa | 0 mm | - | 18 W/m² | - |
| 1777138530 | 14.44° C | 53% | 1016 hPa | 0 mm | - | 33 W/m² | - |
| 1777135227 | 16.11° C | 50% | 1016 hPa | 0 mm | - | 230 W/m² | - |
| 1777134323 | 16.11° C | 47% | 1016 hPa | 0 mm | - | 271 W/m² | - |
| 1777133725 | 16.11° C | 47% | 1016 hPa | 0 mm | - | 301 W/m² | - |
| 1777133422 | 16.11° C | 47% | 1016 hPa | 0 mm | - | 318 W/m² | - |
| 1777131319 | 16.67° C | 43% | 1016.1 hPa | 0 mm | - | 406 W/m² | - |
| 1777129825 | 17.22° C | 48% | 1016.1 hPa | 0 mm | - | 466 W/m² | - |
| 1777126812 | 16.67° C | 48% | 1016.1 hPa | 0 mm | - | 571 W/m² | - |
| 1777126512 | 16.67° C | 49% | 1016.2 hPa | 0 mm | - | 584 W/m² | - |
* Rain latest hour (hover to see other rain measurements)
** Current wind speed in m/s (hover to see current wind gust speed)